�������l�o���
Date,Time,MP-1(��Sv/h),MP-2(��Sv/h),MP-3(��Sv/h),MP-4(��Sv/h),MP-5(��Sv/h),MP-6(��Sv/h),MP-7(��Sv/h),MP-8(��Sv/h),����,����(m/s),���J
2024/04/18,00:00,0.505,0.775,0.487,0.952,0.684,0.316,0.553,0.516,���k��,3.0,��
2024/04/18,00:10,0.505,0.773,0.486,0.952,0.684,0.317,0.553,0.516,��,3.3,��
2024/04/18,00:20,0.507,0.775,0.486,0.952,0.684,0.316,0.552,0.517,���k��,2.8,��
2024/04/18,00:30,0.507,0.774,0.487,0.952,0.685,0.317,0.553,0.517,�k��,2.6,��
2024/04/18,00:40,0.505,0.775,0.487,0.952,0.685,0.318,0.554,0.518,�k��,3.9,��
2024/04/18,00:50,0.505,0.775,0.486,0.951,0.683,0.316,0.551,0.516,���k��,4.1,��
2024/04/18,01:00,0.507,0.774,0.488,0.949,0.686,0.316,0.553,0.518,���k��,4.0,��
2024/04/18,01:10,0.507,0.775,0.488,0.950,0.685,0.317,0.555,0.517,�k��,4.6,��
2024/04/18,01:20,0.506,0.775,0.487,0.951,0.685,0.317,0.553,0.518,�k�k��,4.4,��
2024/04/18,01:30,0.508,0.774,0.488,0.951,0.686,0.317,0.553,0.518,�k�k��,5.3,��
2024/04/18,01:40,0.507,0.775,0.486,0.950,0.687,0.317,0.552,0.518,�k�k��,4.6,��
2024/04/18,01:50,0.506,0.775,0.487,0.951,0.686,0.317,0.554,0.518,�k�k��,4.4,��
2024/04/18,02:00,0.506,0.773,0.486,0.952,0.685,0.317,0.554,0.519,�k�k��,4.5,��
2024/04/18,02:10,0.507,0.774,0.487,0.951,0.686,0.314,0.552,0.517,�k,5.0,��
2024/04/18,02:20,0.507,0.774,0.486,0.953,0.686,0.318,0.553,0.517,�k,4.1,��
2024/04/18,02:30,0.506,0.774,0.486,0.952,0.684,0.316,0.554,0.519,�k,3.5,��
2024/04/18,02:40,0.504,0.772,0.486,0.953,0.686,0.316,0.553,0.516,�k�k��,2.8,��
2024/04/18,02:50,0.506,0.774,0.486,0.953,0.684,0.318,0.554,0.517,�k,3.0,��
2024/04/18,03:00,0.507,0.773,0.487,0.951,0.685,0.316,0.554,0.517,�k,3.1,��
2024/04/18,03:10,0.506,0.774,0.486,0.951,0.687,0.317,0.554,0.517,�k�k��,3.0,��
2024/04/18,03:20,0.506,0.774,0.486,0.953,0.685,0.317,0.552,0.519,�k�k��,2.9,��
2024/04/18,03:30,0.507,0.774,0.486,0.952,0.684,0.317,0.553,0.518,�k�k��,2.5,��
2024/04/18,03:40,0.507,0.774,0.487,0.953,0.685,0.317,0.554,0.517,�k�k��,2.9,��
2024/04/18,03:50,0.507,0.775,0.487,0.950,0.685,0.317,0.553,0.517,�k�k��,3.5,��
2024/04/18,04:00,0.506,0.773,0.486,0.952,0.686,0.317,0.552,0.517,�k�k��,3.7,��
2024/04/18,04:10,0.505,0.771,0.486,0.951,0.685,0.316,0.553,0.518,�k�k��,3.7,��
2024/04/18,04:20,0.506,0.774,0.486,0.952,0.685,0.317,0.553,0.517,�k�k��,3.6,��
2024/04/18,04:30,0.506,0.775,0.487,0.952,0.684,0.316,0.552,0.518,�k,3.0,��
2024/04/18,04:40,0.506,0.775,0.486,0.951,0.684,0.316,0.553,0.518,�k,3.3,��
2024/04/18,04:50,0.505,0.774,0.487,0.952,0.685,0.317,0.552,0.519,�k,3.2,��
2024/04/18,05:00,0.506,0.775,0.487,0.949,0.685,0.317,0.552,0.517,�k�k��,2.9,��
2024/04/18,05:10,0.504,0.772,0.487,0.952,0.684,0.317,0.552,0.518,�k�k��,2.6,��
2024/04/18,05:20,0.507,0.773,0.486,0.952,0.684,0.317,0.552,0.517,�k�k��,2.2,��
2024/04/18,05:30,0.505,0.774,0.485,0.953,0.685,0.316,0.553,0.517,�k,1.7,��
2024/04/18,05:40,0.508,0.774,0.487,0.953,0.684,0.316,0.553,0.517,�k,2.2,��
2024/04/18,05:50,0.506,0.774,0.486,0.952,0.685,0.317,0.553,0.517,�k,2.3,��
2024/04/18,06:00,0.507,0.774,0.487,0.954,0.686,0.315,0.553,0.516,�k,2.3,��
2024/04/18,06:10,0.508,0.773,0.488,0.951,0.684,0.317,0.553,0.519,�k�k��,2.6,��
2024/04/18,06:20,0.506,0.774,0.486,0.952,0.685,0.317,0.553,0.518,�k,2.8,��
2024/04/18,06:30,0.507,0.776,0.487,0.951,0.685,0.316,0.554,0.517,�k,2.8,��
2024/04/18,06:40,0.508,0.774,0.486,0.953,0.685,0.316,0.554,0.518,�k�k��,2.2,��
2024/04/18,06:50,0.506,0.773,0.487,0.952,0.687,0.316,0.554,0.518,�k�k��,2.0,��
2024/04/18,07:00,0.507,0.776,0.486,0.953,0.686,0.316,0.555,0.518,�k,1.9,��
2024/04/18,07:10,0.506,0.774,0.488,0.952,0.686,0.317,0.554,0.518,�k,1.5,��
2024/04/18,07:20,0.508,0.774,0.488,0.955,0.686,0.315,0.555,0.517,�k�k��,1.7,��
2024/04/18,07:30,0.507,0.773,0.487,0.951,0.685,0.316,0.554,0.518,�k�k��,1.5,��
2024/04/18,07:40,0.506,0.773,0.487,0.953,0.687,0.316,0.555,0.518,�k�k��,0.9,��
2024/04/18,07:50,0.503,0.772,0.485,0.953,0.686,0.315,0.554,0.520,�k�k��,1.5,��
2024/04/18,08:00,0.500,0.771,0.486,0.953,0.685,0.314,0.555,0.519,�k�k��,1.9,��
2024/04/18,08:10,0.502,0.772,0.488,0.953,0.684,0.313,0.554,0.518,�k�k��,2.3,��
2024/04/18,08:20,0.501,0.771,0.488,0.951,0.685,0.315,0.553,0.517,�k��,2.3,��
2024/04/18,08:30,0.499,0.773,0.486,0.953,0.683,0.314,0.552,0.517,�k��,2.3,��
2024/04/18,08:40,0.500,0.772,0.485,0.952,0.684,0.316,0.550,0.516,�k��,2.2,��
2024/04/18,08:50,0.499,0.772,0.487,0.954,0.686,0.315,0.553,0.517,�k��,2.8,��
2024/04/18,09:00,0.499,0.771,0.488,0.954,0.684,0.315,0.552,0.517,�k��,3.3,��
2024/04/18,09:10,0.499,0.773,0.487,0.953,0.684,0.316,0.552,0.517,�k��,4.0,��
2024/04/18,09:20,0.498,0.774,0.487,0.951,0.684,0.316,0.553,0.517,�k��,3.6,��
2024/04/18,09:30,0.501,0.774,0.487,0.956,0.684,0.315,0.553,0.517,�k��,3.6,��
2024/04/18,09:40,0.500,0.774,0.487,0.954,0.685,0.314,0.552,0.516,���k��,3.2,��
2024/04/18,09:50,0.500,0.773,0.487,0.953,0.684,0.316,0.552,0.518,�k��,3.4,��
2024/04/18,10:00,0.500,0.774,0.485,0.954,0.685,0.314,0.554,0.517,���k��,2.8,��
2024/04/18,10:10,0.499,0.774,0.486,0.955,0.686,0.316,0.553,0.516,���k��,3.0,��
2024/04/18,10:20,0.502,0.776,0.487,0.955,0.686,0.315,0.554,0.516,���k��,3.0,��
2024/04/18,10:30,0.507,0.774,0.487,0.953,0.686,0.315,0.551,0.517,���쓌,2.3,��
2024/04/18,10:40,0.507,0.776,0.486,0.955,0.686,0.314,0.552,0.517,��,2.8,��
2024/04/18,10:50,0.507,0.776,0.486,0.955,0.685,0.315,0.553,0.518,��,2.6,��
2024/04/18,11:00,0.507,0.777,0.487,0.954,0.686,0.315,0.553,0.516,��,2.5,��
2024/04/18,11:10,0.507,0.777,0.488,0.954,0.685,0.315,0.553,0.517,��,2.5,��
2024/04/18,11:20,0.507,0.773,0.486,0.952,0.685,0.316,0.552,0.516,��,3.1,��
2024/04/18,11:30,0.509,0.776,0.485,0.954,0.685,0.316,0.553,0.515,���쓌,2.6,��
2024/04/18,11:40,0.506,0.775,0.487,0.955,0.687,0.316,0.554,0.518,���쓌,2.8,��
2024/04/18,11:50,0.508,0.776,0.485,0.956,0.685,0.315,0.553,0.517,���쓌,2.0,��
2024/04/18,12:00,0.508,0.775,0.485,0.954,0.688,0.316,0.553,0.517,�쓌,2.6,��
2024/04/18,12:10,0.508,0.776,0.487,0.954,0.687,0.316,0.552,0.518,���쓌,2.0,��
2024/04/18,12:20,0.507,0.775,0.487,0.954,0.688,0.316,0.552,0.517,���쓌,2.2,��
2024/04/18,12:30,0.509,0.776,0.488,0.955,0.688,0.316,0.553,0.518,���쓌,2.6,��
2024/04/18,12:40,0.508,0.775,0.488,0.954,0.686,0.315,0.553,0.518,�쓌,2.6,��
2024/04/18,12:50,0.508,0.776,0.488,0.954,0.686,0.315,0.553,0.516,�쓌,2.6,��
2024/04/18,13:00,0.509,0.776,0.487,0.955,0.688,0.316,0.552,0.517,�쓌,2.6,��
2024/04/18,13:10,0.508,0.776,0.487,0.956,0.688,0.316,0.553,0.516,���쓌,2.0,��
2024/04/18,13:20,0.508,0.774,0.488,0.956,0.687,0.317,0.552,0.516,�쓌,2.5,��
2024/04/18,13:30,0.506,0.775,0.486,0.955,0.687,0.316,0.552,0.519,�쓌,2.6,��
2024/04/18,13:40,0.508,0.774,0.487,0.954,0.688,0.317,0.552,0.519,���쓌,2.2,��
2024/04/18,13:50,0.506,0.774,0.487,0.957,0.686,0.316,0.554,0.516,�쓌,2.6,��
2024/04/18,14:00,0.508,0.776,0.487,0.955,0.688,0.316,0.553,0.518,�쓌,2.3,��
2024/04/18,14:10,0.508,0.776,0.486,0.954,0.688,0.316,0.554,0.516,���쓌,1.9,��
2024/04/18,14:20,0.509,0.775,0.486,0.955,0.687,0.315,0.555,0.517,���쓌,2.3,��
2024/04/18,14:30,0.507,0.776,0.486,0.955,0.687,0.316,0.554,0.517,�쓌,2.3,��
2024/04/18,14:40,0.508,0.776,0.487,0.955,0.688,0.318,0.554,0.518,�쓌,2.2,��
2024/04/18,14:50,0.507,0.777,0.486,0.955,0.688,0.316,0.555,0.518,���쓌,2.0,��
2024/04/18,15:00,0.507,0.774,0.486,0.955,0.687,0.316,0.552,0.518,�쓌,1.9,��
2024/04/18,15:10,0.506,0.776,0.486,0.955,0.689,0.315,0.554,0.516,�쓌,2.0,��
2024/04/18,15:20,0.509,0.776,0.488,0.954,0.689,0.315,0.552,0.516,�쓌,2.0,��
2024/04/18,15:30,0.508,0.775,0.488,0.956,0.687,0.316,0.554,0.517,�쓌,2.5,��
2024/04/18,15:40,0.508,0.776,0.488,0.958,0.687,0.316,0.553,0.517,�쓌,2.3,��
2024/04/18,15:50,0.508,0.776,0.489,0.955,0.687,0.317,0.553,0.517,��,2.2,��
2024/04/18,16:00,0.506,0.775,0.488,0.956,0.687,0.315,0.554,0.517,�쓌,2.3,��
2024/04/18,16:10,0.507,0.777,0.487,0.956,0.688,0.318,0.554,0.519,���쓌,2.0,��
2024/04/18,16:20,0.509,0.777,0.487,0.956,0.688,0.315,0.554,0.517,�쓌,2.3,��
2024/04/18,16:30,0.508,0.777,0.487,0.957,0.689,0.317,0.554,0.518,�쓌,2.2,��
2024/04/18,16:40,0.509,0.776,0.487,0.956,0.688,0.319,0.553,0.516,�쓌,2.2,��
2024/04/18,16:50,0.509,0.777,0.489,0.956,0.688,0.317,0.553,0.516,�쓌,2.3,��
2024/04/18,17:00,0.508,0.778,0.490,0.959,0.689,0.317,0.552,0.518,��쓌,2.3,��
2024/04/18,17:10,0.508,0.777,0.489,0.957,0.688,0.318,0.552,0.519,��쓌,2.6,��
2024/04/18,17:20,0.508,0.780,0.489,0.955,0.689,0.317,0.553,0.517,��쓌,2.0,��
2024/04/18,17:30,0.512,0.778,0.491,0.958,0.689,0.317,0.553,0.520,��쓌,1.7,��
2024/04/18,17:40,0.510,0.781,0.489,0.957,0.690,0.317,0.554,0.519,��,1.5,��
2024/04/18,17:50,0.510,0.781,0.489,0.953,0.689,0.317,0.554,0.521,��,2.3,��
2024/04/18,18:00,0.510,0.780,0.489,0.959,0.688,0.317,0.554,0.518,��쐼,0.6,��
2024/04/18,18:10,0.508,0.782,0.491,0.957,0.688,0.318,0.555,0.520,��,0.6,��
2024/04/18,18:20,0.509,0.781,0.490,0.959,0.689,0.317,0.553,0.519,�k�k��,0.6,��
2024/04/18,18:30,0.511,0.779,0.488,0.959,0.689,0.319,0.554,0.520,�k,1.2,��
2024/04/18,18:40,0.509,0.778,0.488,0.957,0.690,0.318,0.555,0.519,�k��,0.6,��
2024/04/18,18:50,0.508,0.781,0.489,0.957,0.688,0.318,0.555,0.519,���k��,0.6,��
2024/04/18,19:00,0.511,0.778,0.489,0.958,0.692,0.318,0.554,0.520,�k��,0.6,��
2024/04/18,19:10,0.509,0.780,0.487,0.956,0.689,0.318,0.554,0.519,�k,1.1,�L
2024/04/18,19:20,0.510,0.781,0.489,0.957,0.690,0.319,0.555,0.520,���k��,1.1,�L
2024/04/18,19:30,0.508,0.780,0.489,0.956,0.690,0.319,0.555,0.520,���k��,0.9,�L
2024/04/18,19:40,0.509,0.779,0.490,0.958,0.692,0.319,0.555,0.520,���k��,0.8,�L
2024/04/18,19:50,0.509,0.778,0.487,0.957,0.690,0.320,0.555,0.521,��,0.6,��
2024/04/18,20:00,0.512,0.778,0.488,0.958,0.690,0.319,0.554,0.520,��,0.6,��
2024/04/18,20:10,0.510,0.780,0.489,0.956,0.691,0.319,0.553,0.520,��,0.6,��
2024/04/18,20:20,0.510,0.779,0.490,0.958,0.690,0.319,0.555,0.520,�쐼,0.6,��
2024/04/18,20:30,0.511,0.780,0.490,0.957,0.692,0.318,0.554,0.519,��쐼,1.2,��
2024/04/18,20:40,0.511,0.781,0.487,0.958,0.690,0.318,0.555,0.519,��쐼,1.4,��
2024/04/18,20:50,0.512,0.780,0.489,0.958,0.690,0.318,0.555,0.519,��,1.1,��
2024/04/18,21:00,0.510,0.781,0.490,0.958,0.692,0.318,0.555,0.520,-,CALM,��
2024/04/18,21:10,0.511,0.781,0.491,0.958,0.691,0.318,0.553,0.520,�k�k��,0.9,��
2024/04/18,21:20,0.509,0.779,0.488,0.959,0.689,0.319,0.555,0.519,�k��,1.2,��
2024/04/18,21:30,0.510,0.777,0.489,0.957,0.691,0.319,0.555,0.520,�k��,1.1,��
2024/04/18,21:40,0.510,0.779,0.490,0.956,0.690,0.318,0.556,0.522,�k�k��,1.1,��
2024/04/18,21:50,0.511,0.782,0.490,0.956,0.691,0.318,0.554,0.521,�k,2.6,��
2024/04/18,22:00,0.509,0.780,0.490,0.956,0.689,0.320,0.555,0.518,�k�k��,3.3,��
2024/04/18,22:10,0.509,0.778,0.490,0.957,0.691,0.318,0.554,0.520,�k�k��,4.0,��
2024/04/18,22:20,0.511,0.779,0.490,0.957,0.690,0.317,0.555,0.519,�k�k��,4.3,��
2024/04/18,22:30,0.511,0.780,0.488,0.959,0.691,0.321,0.555,0.520,�k��,4.2,��
2024/04/18,22:40,0.510,0.779,0.489,0.957,0.690,0.320,0.555,0.520,�k�k��,4.2,��
2024/04/18,22:50,0.512,0.780,0.490,0.957,0.690,0.318,0.555,0.520,�k�k��,5.4,��
2024/04/18,23:00,0.510,0.782,0.488,0.959,0.691,0.319,0.555,0.520,�k�k��,5.6,��
2024/04/18,23:10,0.511,0.779,0.488,0.957,0.692,0.320,0.554,0.520,�k�k��,5.4,��
2024/04/18,23:20,0.510,0.779,0.488,0.957,0.690,0.319,0.553,0.521,�k�k��,5.8,��
2024/04/18,23:30,0.511,0.778,0.489,0.958,0.690,0.319,0.553,0.521,�k��,5.1,��
2024/04/18,23:40,0.509,0.780,0.490,0.957,0.691,0.320,0.553,0.519,�k�k��,6.0,��
2024/04/18,23:50,0.509,0.780,0.488,0.956,0.691,0.320,0.554,0.519,�k�k��,6.5,��
